Location: Bovenkerk
(52.2915°N, 4.8336°E)
Time: 23:25:58
(UTC+00:00)

ASTEX 1 - Pass Details

Date: 09 April 2020
Orbit: 720 x 743 km, 92.7° (Epoch: 29 May)

Event Time Altitude Azimuth Distance (km) Brightness Sun altitude
Exits shadow 21:49:59 81° 158° (SSE) 755 3.2 -25.1°
Maximum altitude 21:50:15 88° 82° (E) 746 3.3 -25.1°
Drops below altitude 10° 21:55:14 10° 355° (N) 2,250 6.8 -25.5°
Sets 21:57:32 0° 355° (N) 3,174 7.7 -25.7°
